DECAYED

COSMOS 2251 DEB, 34054 (Decayed)

Orbit data source: Space-Track

COSMOS 2251 DEB, 34054 was space debris in LEO originally from a launch on Wed, 16 Jun 1993 UTC launched from the Plesetsk Missile And Space Complex (PKMTR). The debris from Iridium 33, an American commercial communications satellite, has been tracked extensively since its accidental collision with the defunct Russian satellite Cosmos 2251 in 2009. This event, occurring at high speed in low Earth orbit (LEO), generated thousands of pieces of space debris, significantly increasing the risk of further collisions. The Iridium 33 debris cloud has impacted space traffic management and orbital debris mitigation strategies, making it a subject of ongoing study in space situational awareness.

Not visible in the next 10 days
Identifier
34054, 1993-036JR
Orbit
Decayed
Country
Flag of CISCIS
Related business
Manufacturer
Unknown
Mission
Decayed spacecraft
Bus & Motor
Unknown
Mass
Unknown
Launch date (UTC)
1993-06-16 (33 years ago)
Launch vehicle
Unknown
Launch site
Plesetsk Missile And Space Complex (PKMTR)
Object type
Payload
Rocket body
Debris
Shape & HBR
Unknown shape, 0.1 m
Radar Cross Section
Medium (>0.1 m² and <1 m²)

Expand to show TLE details & history
Last TLE update: 1 year ago

TLE from 1 year ago
0 COSMOS 2251 DEB
1 34054U 93036JR  25169.50988264  .05844672  15546+0  86690-2 0  9999
2 34054  73.9718 213.5076 0016209 282.4774  77.4657 16.12879201868868
Epoch: 2025-06-18T12:14Z
TLE epoch observation values (Epoch: 2025-06-18T12:14:13.860Z)
Latitude
-0.00005°
Longitude
122.95894°
Altitude
239.462 km
Speed
7.765 km/s
True Right ascension
14h 14m 01s
True Declination
0° 00' 00"
Sunlit
Object was in full shadow at epoch
Visualization orbit readout
Latitude
Unknown
Longitude
Unknown
Altitude
Unknown
Speed
Unknown
Apparent Right ascension
Unknown
Apparent Declination
Unknown
Sunlit
N/A
Visualization observer readout
Local Sidereal Time
09:34:00
Azimuth
Unknown
Elevation
Unknown
Doppler factor
Unknown
Orbital elements
Apogee altitude
247.116 km
Perigee altitude
225.673 km
Semi-major axis
6,614.532 km
Eccentricity
0.00162
Inclination
73.9718°
RAAN
213.5076°
Arg. of periapsis
282.4774°
True anomaly
77.64709°
Mean anomaly
77.4657°
Eccentric anomaly
77.55639°
Mean motion
4.03454 °/min
Orbital period
89.23 mins
BSTAR
0.008669
Loading maneuver chart data...
Computing Atmospheric mass density...

Documentation

Showing up to 5 results
|